User: anonymous   Login
Location: Ostrava
(49.8330°N, 18.2830°E)
Time: 11:24:09
(UTC+02:00)
Language:

Cosmos 1766 - Orbit

View from above orbital plane
View from above orbital plane
View from above satellite
View from above satellite

Ground track
Ground track

The orbit data is extracted from the following two-line orbital elements,

1 16881U 86055A   17296.91221653 +.00001568 +00000-0 +93669-4 0  9999
2 16881 082.5036 257.7359 0017850 023.7715 336.4335 15.10266867679702
Epoch (UTC): 23 October 2017 21:53:35
Eccentricity: 0.0017850
inclination: 82.5036°
perigee height: 523 km
apogee height: 548 km
right ascension of ascending node: 257.7359°
argument of perigee: 23.7715°
revolutions per day: 15.10266867
mean anomaly at epoch: 336.4335°
orbit number at epoch: 67970

The dashed part of the orbit path shows where the satellite is in the earth's shadow,  

DLR